CW4038 Weather Reports


Display with metric or nautical units.
time (UTC)temp
F
wind
direction
speed
MPH
gust
MPH
rain 1hr
in
rain 24hr
in
rain mn
in
humidity
%
barometer
mb
20200126043342 53 148 0.0 0.0 0.00 0.00 0.00 85 1019.9
20200126042441 53 148 0.0 0.0 0.00 0.00 0.00 85 1019.9
20200126041540 54 148 0.0 0.0 0.00 0.00 0.00 85 1019.9
20200126040638 54 148 0.0 0.0 0.00 0.00 0.00 85 1019.9
20200126035738 54 148 0.0 0.0 0.00 0.00 0.00 83 1019.6
20200126034837 54 148 0.0 0.0 0.00 0.00 0.00 83 1019.6
20200126033936 54 148 0.0 0.0 0.00 0.00 0.00 82 1019.9
20200126033035 55 148 0.0 0.0 0.00 0.00 0.00 82 1020.0
20200126032135 55 148 0.0 0.0 0.00 0.00 0.00 80 1019.6
20200126031234 56 148 0.0 0.0 0.00 0.00 0.00 79 1019.6
20200126030332 57 148 0.0 0.0 0.00 0.00 0.00 77 1019.7
20200126025431 57 148 0.0 0.0 0.00 0.00 0.00 76 1019.7
20200126024530 58 148 0.0 1.0 0.00 0.00 0.00 74 1019.7
20200126023629 59 148 0.0 1.0 0.00 0.00 0.00 74 1019.7
20200126022728 59 148 0.0 3.0 0.00 0.00 0.00 72 1019.4
20200126021827 60 148 0.0 3.0 0.00 0.00 0.00 72 1019.4
20200126020926 60 155 1.0 1.0 0.00 0.00 0.00 71 1019.8
20200126020026 61 153 0.0 1.0 0.00 0.00 0.00 70 1019.8
20200126015125 61 120 1.0 3.0 0.00 0.00 0.00 68 1019.5
20200126014224 61 124 2.0 3.0 0.00 0.00 0.00 68 1019.1
20200126013323 62 107 1.0 1.0 0.00 0.00 0.00 67 1019.5
20200126012422 62 15 0.0 0.0 0.00 0.00 0.00 64 1019.1
20200126011522 63 15 0.0 0.0 0.00 0.00 0.00 64 1019.2
20200126010621 63 15 0.0 0.0 0.00 0.00 0.00 63 1019.2
20200126005720 64 15 0.0 1.0 0.00 0.00 0.00 62 1019.2
20200126004820 64 15 1.0 1.0 0.00 0.00 0.00 61 1019.6
20200126003919 65 15 0.0 3.0 0.00 0.00 0.00 59 1019.6
20200126003019 65 15 0.0 3.0 0.00 0.00 0.00 59 1019.3
20200126002117 66 346 1.0 3.0 0.00 0.00 0.00 58 1019.3
20200126001216 66 20 1.0 4.0 0.00 0.00 0.00 57 1019.3
20200126000316 66 312 2.0 4.0 0.00 0.00 0.00 58 1019.3
20200125235415 68 329 2.0 4.0 0.00 0.00 0.00 56 1019.3
20200125234514 68 136 1.0 3.0 0.00 0.00 0.00 55 1019.3
20200125233613 67 51 0.0 3.0 0.00 0.00 0.00 57 1019.3
20200125232713 67 355 2.0 3.0 0.00 0.00 0.00 56 1019.3
20200125231811 68 46 0.0 3.0 0.00 0.00 0.00 55 1019.3
20200125230910 67 35 1.0 4.0 0.00 0.00 0.00 57 1019.0
20200125230009 67 348 1.0 3.0 0.00 0.00 0.00 56 1019.0
20200125225108 67 17 1.0 3.0 0.00 0.00 0.00 57 1019.0
20200125224207 67 43 1.0 3.0 0.00 0.00 0.00 56 1019.0
20200125223306 67 22 1.0 4.0 0.00 0.00 0.00 57 1019.0
20200125222405 67 323 2.0 5.0 0.00 0.00 0.00 58 1019.3
20200125221504 67 16 1.0 5.0 0.00 0.00 0.00 59 1019.0
20200125220604 67 325 1.0 4.0 0.00 0.00 0.00 57 1019.3
20200125215703 66 337 1.0 3.0 0.00 0.00 0.00 59 1019.3
20200125214802 66 329 2.0 3.0 0.00 0.00 0.00 58 1019.3
20200125213901 65 149 1.0 3.0 0.00 0.00 0.00 60 1019.3
20200125213000 65 133 1.0 3.0 0.00 0.00 0.00 59 1019.3
20200125212100 65 25 1.0 3.0 0.00 0.00 0.00 59 1019.6
20200125211157 66 311 1.0 2.0 0.00 0.00 0.00 59 1019.7
20200125210256 65 107 1.0 4.0 0.00 0.00 0.00 60 1019.6
20200125205355 65 331 2.0 4.0 0.00 0.00 0.00 60 1020.0
20200125204454 64 315 1.0 6.0 0.00 0.00 0.00 62 1020.0
20200125203553 64 317 1.0 6.0 0.00 0.00 0.00 62 1020.3
20200125202652 64 309 1.0 6.0 0.00 0.00 0.00 62 1020.3
20200125201752 64 306 1.0 4.0 0.00 0.00 0.00 63 1020.6
20200125200851 63 28 1.0 6.0 0.00 0.00 0.00 65 1020.6
20200125195950 62 316 2.0 6.0 0.00 0.00 0.00 66 1021.0
20200125195050 62 320 2.0 6.0 0.00 0.00 0.00 65 1021.3
20200125194149 63 342 2.0 5.0 0.00 0.00 0.00 65 1021.3
20200125193248 63 321 2.0 5.0 0.00 0.00 0.00 66 1021.3
20200125192347 62 314 1.0 5.0 0.00 0.00 0.00 65 1021.3
20200125191446 62 329 2.0 5.0 0.00 0.00 0.00 66 1021.3
20200125190545 62 298 1.0 2.0 0.00 0.00 0.00 68 1021.3
20200125185644 62 324 1.0 2.0 0.00 0.00 0.00 67 1021.3
20200125184743 61 134 0.0 2.0 0.00 0.00 0.00 69 1021.6
20200125183842 60 255 1.0 4.0 0.00 0.00 0.00 72 1021.6
20200125182940 59 180 0.0 4.0 0.00 0.00 0.00 71 1021.6
20200125182039 60 148 2.0 4.0 0.00 0.00 0.00 72 1021.3
20200125181138 58 127 1.0 4.0 0.00 0.00 0.00 75 1021.6
20200125180237 58 182 2.0 4.0 0.00 0.00 0.00 75 1021.6
20200125175337 57 154 2.0 5.0 0.00 0.00 0.00 76 1021.6
20200125174435 57 135 2.0 5.0 0.00 0.00 0.00 76 1021.9
20200125173535 57 150 1.0 5.0 0.00 0.00 0.00 78 1021.9
20200125172633 56 124 1.0 5.0 0.00 0.00 0.00 80 1021.9
20200125171733 55 161 1.0 4.0 0.00 0.00 0.00 84 1021.9
20200125170832 55 138 2.0 4.0 0.00 0.00 0.00 85 1021.9
20200125165930 54 161 2.0 4.0 0.00 0.00 0.00 87 1021.9
20200125165029 53 151 1.0 3.0 0.00 0.00 0.00 89 1021.9
20200125164128 52 125 1.0 2.0 0.00 0.00 0.00 93 1021.8
20200125163227 51 129 1.0 2.0 0.00 0.00 0.00 94 1021.8
20200125162327 51 133 1.0 2.0 0.00 0.00 0.00 95 1022.1
20200125161426 50 96 0.0 1.0 0.00 0.00 0.00 96 1022.1
20200125113115 44 127 0.0 0.0 0.00 0.00 0.00 97 1022.2
20200125112214 45 127 0.0 0.0 0.00 0.00 0.00 97 1022.2
20200125111313 45 151 0.0 0.0 0.00 0.00 0.00 97 1022.2
20200125110412 45 151 0.0 0.0 0.00 0.00 0.00 97 1022.2
20200125105511 45 153 0.0 0.0 0.00 0.00 0.00 97 1022.2
20200125104610 45 152 0.0 2.0 0.00 0.00 0.00 97 1022.2
20200125103709 45 153 0.0 2.0 0.00 0.00 0.00 97 1022.2
20200125102809 46 153 0.0 1.0 0.00 0.00 0.00 97 1021.9
20200125101907 46 153 0.0 1.0 0.00 0.00 0.00 97 1021.9
20200125101006 46 150 0.0 2.0 0.00 0.00 0.00 97 1021.9
20200125100105 45 148 1.0 2.0 0.00 0.00 0.00 97 1021.5
20200125095204 45 153 0.0 0.0 0.00 0.00 0.00 97 1021.5
20200125094303 45 160 0.0 1.0 0.00 0.00 0.00 97 1021.5
20200125093403 45 177 0.0 1.0 0.00 0.00 0.00 97 1021.5
20200125092501 45 225 1.0 1.0 0.00 0.00 0.00 96 1021.2
20200125091600 46 225 0.0 0.0 0.00 0.00 0.00 96 1021.2
20200125090659 46 225 0.0 0.0 0.00 0.00 0.00 97 1021.2
20200125085758 46 225 0.0 1.0 0.00 0.00 0.00 97 1021.5
20200125084858 46 225 1.0 1.0 0.00 0.00 0.00 97 1021.5
20200125083957 46 117 1.0 1.0 0.00 0.00 0.00 96 1021.5
20200125083056 46 117 0.0 0.0 0.00 0.00 0.00 96 1021.1
20200125082154 46 117 0.0 0.0 0.00 0.00 0.00 96 1021.1
20200125081254 46 117 0.0 0.0 0.00 0.00 0.00 96 1021.1
20200125080353 46 117 0.0 0.0 0.00 0.00 0.00 96 1021.1
20200125075452 47 117 0.0 0.0 0.00 0.00 0.00 96 1021.1
20200125074551 47 117 0.0 0.0 0.00 0.00 0.00 96 1021.1
20200125073650 47 117 0.0 0.0 0.00 0.00 0.00 96 1021.1
20200125072749 48 117 0.0 0.0 0.00 0.00 0.00 96 1021.1
20200125071848 48 117 0.0 0.0 0.00 0.00 0.00 96 1021.1
20200125070947 48 117 0.0 1.0 0.00 0.00 0.00 96 1021.5
20200125070047 48 117 0.0 1.0 0.00 0.00 0.00 96 1021.5
20200125065146 48 134 1.0 1.0 0.00 0.00 0.00 96 1021.5
20200125064245 48 127 0.0 0.0 0.00 0.00 0.00 96 1021.5
20200125063343 48 124 0.0 0.0 0.00 0.00 0.00 96 1021.5
20200125062443 49 124 0.0 0.0 0.00 0.00 0.00 96 1021.5
20200125061541 49 124 0.0 0.0 0.00 0.00 0.00 96 1021.5
20200125060640 49 141 0.0 0.0 0.00 0.00 0.00 96 1021.5
20200125055739 49 141 0.0 0.0 0.00 0.00 0.00 96 1021.8
20200125054838 49 141 0.0 0.0 0.00 0.00 0.00 96 1021.8
20200125053938 48 141 0.0 0.0 0.00 0.00 0.00 96 1021.8
20200125053037 48 141 0.0 0.0 0.00 0.00 0.00 95 1021.8
20200125052136 47 141 0.0 0.0 0.00 0.00 0.00 95 1021.8
20200125051235 48 141 0.0 0.0 0.00 0.00 0.00 95 1021.8
20200125050334 47 141 0.0 0.0 0.00 0.00 0.00 95 1021.7
20200125045433 47 141 0.0 0.0 0.00 0.00 0.00 94 1021.7
20200125044532 47 141 0.0 0.0 0.00 0.00 0.00 94 1021.7